Regional Weather Roundup
Issued by NWS

Home | Current Version | Previous Version | Graphics & Text | Print | Product List | Glossary On
Versions: 1 2 3 4 5 6 7 8 9 10 11 12 13 14 15 16 17 18 19 20 21 22 23 24 25 26 27 28 29 30 31 32 33 34 35 36 37 38 39 40 41 42 43 44 45 46 47 48 49 50
000
ASUS43 KBIS 290902
RWRND

NORTH DAKOTA REGIONAL WEATHER ROUNDUP
NATIONAL WEATHER SERVICE BISMARCK ND
400 AM CDT WED JUL 29 2015

NOTE: "FAIR" INDICATES FEW OR NO CLOUDS BELOW 12,000 FEET WITH NO
SIGNIFICANT WEATHER AND/OR OBSTRUCTIONS TO VISIBILITY.


NDZ001>003-009>011-017-291000-
NORTHWEST NORTH DAKOTA

CITY           SKY/WX    TMP DP  RH WIND       PRES   REMARKS
WILLISTON      MOCLDY    59  51  75 W20       29.93R
MINOT          CLOUDY    63  50  62 W28G36    29.78R
MINOT AFB      MOCLDY    64  54  70 W26G32    29.76R
$$

NDZ018>021-031>035-040>046-291000-
SOUTHWEST NORTH DAKOTA

CITY           SKY/WX    TMP DP  RH WIND       PRES   REMARKS
BISMARCK       CLEAR     63  47  55 W21G32    29.91R
DICKINSON      PTCLDY    55  44  66 W13       29.98S
GARRISON         N/A     59  52  77 W17G29    29.85R
HETTINGER ARPT CLEAR     51  41  68 NW8       30.07S
$$

NDZ004>008-012>016-024-026-027-054-291000-
NORTHEAST NORTH DAKOTA

CITY           SKY/WX    TMP DP  RH WIND       PRES   REMARKS
GRAND FORKS    CLOUDY    65  53  65 W28G43    29.58R
DEVILS LAKE    CLOUDY    63  50  63 W38G49    29.62R
$$

NDZ022-023-025-028>030-036>039-047>053-291000-
SOUTHEAST NORTH DAKOTA

CITY           SKY/WX    TMP DP  RH WIND       PRES   REMARKS
FARGO          CLOUDY    66  51  58 SW22G29   29.73S
JAMESTOWN      CLEAR     62  49  62 W23G39    29.78S
$$



USA.gov is the U.S. government's official web portal to all federal, state and local government web resources and services.